Location: Althorst
(53.6379°N, 10.7715°E)
Time: 07:08:58
(UTC+00:00)

SeaSat 1 - Pass Details

Date: 10 December 2019
Orbit: 744 x 748 km, 108.0° (Epoch: 26 January)

Event Time Altitude Azimuth Distance (km) Brightness Sun altitude
Exits shadow 17:02:16 26° 47° (NE) 1,433 3.4 -17.2°
Maximum altitude 17:02:43 27° 38° (NE) 1,420 3.4 -17.3°
Drops below altitude 10° 17:06:49 10° 342° (NNW) 2,275 5.0 -17.9°
Sets 17:09:22 0° 331° (NNW) 3,203 5.9 -18.2°
